PAL2981 RPLL-RPVA

Flight info

Callsign PAL2981
Flight time N/A
Altitude 33000
Route IPATA2R IPATA B462 ARREX ARREX2R
Aircraft A321/M-SDE3FGHIRWY/LB1

Departure

Time 2026-05-07 20:41
Airport Ninoy Aquino International Airport (RPLL)

Arrival

Time N/A
Airport Daniel Z. Romualdez Airport (RPVA)
Time Latitude Longitude Altitude Speed Heading
2026-05-07 20:24 14.50897 121.01363 82 ft 0 kts 329°
2026-05-07 20:29 14.50894 121.01365 82 ft 2 kts 329°
2026-05-07 20:29 14.50881 121.01372 82 ft 2 kts 330°
2026-05-07 20:29 14.50868 121.01380 82 ft 2 kts 330°
2026-05-07 20:29 14.50854 121.01388 82 ft 2 kts 330°
2026-05-07 20:30 14.50841 121.01395 82 ft 2 kts 330°
2026-05-07 20:30 14.50828 121.01404 82 ft 2 kts 330°
2026-05-07 20:30 14.50815 121.01411 82 ft 1 kts 330°
2026-05-07 20:30 14.50810 121.01414 82 ft 0 kts 307°
2026-05-07 20:31 14.50808 121.01421 82 ft 0 kts 250°
2026-05-07 20:31 14.50810 121.01425 82 ft 1 kts 238°
2026-05-07 20:31 14.50812 121.01427 82 ft 0 kts 240°
2026-05-07 20:34 14.50786 121.01382 82 ft 10 kts 240°
2026-05-07 20:34 14.50746 121.01320 82 ft 9 kts 213°
2026-05-07 20:34 14.50686 121.01319 82 ft 7 kts 197°
2026-05-07 20:34 14.50641 121.01270 82 ft 10 kts 242°
2026-05-07 20:35 14.50606 121.01202 82 ft 11 kts 242°
2026-05-07 20:35 14.50566 121.01132 82 ft 11 kts 239°
2026-05-07 20:35 14.50526 121.01060 82 ft 12 kts 240°
2026-05-07 20:35 14.50485 121.00987 82 ft 11 kts 240°
2026-05-07 20:36 14.50443 121.00910 82 ft 12 kts 240°
2026-05-07 20:36 14.50399 121.00832 82 ft 12 kts 240°
2026-05-07 20:36 14.50354 121.00751 82 ft 13 kts 242°
2026-05-07 20:36 14.50347 121.00738 82 ft 13 kts 241°
2026-05-07 20:37 14.50319 121.00687 82 ft 13 kts 241°
2026-05-07 20:37 14.50272 121.00603 82 ft 13 kts 240°
2026-05-07 20:37 14.50224 121.00517 82 ft 13 kts 240°
2026-05-07 20:38 14.50025 121.00160 82 ft 14 kts 240°
2026-05-07 20:38 14.49975 121.00070 82 ft 14 kts 241°
2026-05-07 20:39 14.49934 120.99995 82 ft 8 kts 240°
2026-05-07 20:39 14.49896 120.99963 82 ft 6 kts 185°
2026-05-07 20:39 14.49849 120.99979 82 ft 7 kts 150°
2026-05-07 20:39 14.49806 121.00014 82 ft 7 kts 120°
2026-05-07 20:40 14.49815 121.00067 82 ft 8 kts 59°
2026-05-07 20:40 14.49845 121.00124 82 ft 14 kts 60°
2026-05-07 20:40 14.49999 121.00397 82 ft 77 kts 60°
2026-05-07 20:40 14.50378 121.01084 82 ft 138 kts 60°
2026-05-07 20:41 14.50929 121.02081 191 ft 176 kts 61°
2026-05-07 20:41 14.51512 121.03179 796 ft 176 kts 62°
2026-05-07 20:41 14.52125 121.04289 1442 ft 177 kts 60°